sat.trackr.live / text

‹ back to catalog

MAUVE

NORAD 66756 · 2025-276CU

PAYLOAD ACTIVE UNKNOWN

§ Identity

Operator
Country
HUN
Launch date
2025-11-28
Launch site
AFWTR
Launch vehicle
Mass (kg)
RCS (m²)

External: N2YO · Heavens-Above · Gunter

§ Orbital elements

Epoch: 2026-09-20T10:35:15.241632Z

Period
94.63 min
Inclination
97.4126°
Eccentricity
0.0001745
Mean motion
15.21692985 rev/d
Perigee alt
499.5 km
Apogee alt
501.9 km
Semi-major
6,878.9 km
B*
1.8718e-4
RAAN
335.7505°
Arg perigee
36.6122°
Mean anomaly
323.5233°
Rev number
4,491

§ Raw data

MAUVE1 66756U 25276CU  26263.44114863  .00004166  00000+0  18718-3 0  99962 66756  97.4126 335.7505 0001745  36.6122 323.5233 15.21692985 44913

JSON: /api/v1/satellites/66756 · /tle

For live sub-satellite position, see the globe view (requires WebGL).

§ Visibility from observer

Set your observer location to see the next 7 days of passes ≥ 10°. The values pass through the URL so the page stays shareable.

No JS? Fill the form by hand. The geolocation button needs JavaScript.

§ Radio — SatNOGS DB

ModeDescriptionDownlinkUplink
LoRa LoRa Beacon 137.925 MHz
FM S-band telemetry 2.250 GHz
FM Telemetry 401.750 MHz

3 transmitters · refreshed weekly from db.satnogs.org